| time (UTC) | temp C | wind direction | speed KPH | gust KPH | rain 1hr cm | rain 24hr cm | rain mn cm | humidity % | barometer mb |
| 20260504030248 | 10 | 138 | 0.0 | 0.0 | 0.00 | 0.03 | 0.03 | 73 | 1012.5 |
| 20260504025744 | 10 | 174 | 0.0 | 0.0 | 0.00 | 0.03 | 0.03 | 73 | 1012.5 |
| 20260504025242 | 10 | 184 | 0.0 | 0.0 | 0.00 | 0.03 | 0.03 | 71 | 1012.4 |
| 20260504024738 | 10 | 148 | 0.0 | 0.0 | 0.00 | 0.03 | 0.03 | 70 | 1012.4 |
| 20260504024235 | 11 | 195 | 1.6 | 1.6 | 0.00 | 0.03 | 0.03 | 71 | 1012.6 |
| 20260504023732 | 11 | 151 | 0.0 | 0.0 | 0.00 | 0.03 | 0.03 | 64 | 1012.6 |
| 20260504023228 | 11 | 134 | 0.0 | 0.0 | 0.00 | 0.03 | 0.03 | 63 | 1012.5 |
| 20260504022724 | 11 | 173 | 1.6 | 1.6 | 0.00 | 0.03 | 0.03 | 63 | 1012.6 |
| 20260504022220 | 11 | 215 | 1.6 | 4.8 | 0.00 | 0.03 | 0.03 | 63 | 1012.7 |
| 20260504021718 | 11 | 158 | 0.0 | 1.6 | 0.00 | 0.03 | 0.03 | 62 | 1012.6 |
| 20260504021215 | 11 | 214 | 3.2 | 8.0 | 0.00 | 0.03 | 0.03 | 62 | 1012.8 |
| 20260504020712 | 12 | 141 | 0.0 | 8.0 | 0.00 | 0.03 | 0.03 | 62 | 1012.5 |
| 20260504020208 | 12 | 161 | 4.8 | 4.8 | 0.00 | 0.03 | 0.03 | 61 | 1012.8 |
| 20260504015704 | 12 | 266 | 3.2 | 4.8 | 0.00 | 0.03 | 0.03 | 61 | 1012.8 |
| 20260504015201 | 12 | 110 | 1.6 | 9.7 | 0.00 | 0.03 | 0.03 | 60 | 1012.9 |
| 20260504014656 | 12 | 293 | 6.4 | 11.3 | 0.00 | 0.03 | 0.03 | 59 | 1012.9 |
| 20260504014154 | 12 | 128 | 1.6 | 9.7 | 0.00 | 0.03 | 0.03 | 59 | 1012.7 |
| 20260504013652 | 12 | 190 | 1.6 | 3.2 | 0.00 | 0.03 | 0.03 | 59 | 1012.4 |
| 20260504013148 | 12 | 261 | 1.6 | 11.3 | 0.00 | 0.03 | 0.03 | 59 | 1012.6 |
| 20260504012645 | 12 | 199 | 4.8 | 8.0 | 0.00 | 0.03 | 0.03 | 59 | 1012.4 |
| 20260504012143 | 12 | 222 | 1.6 | 9.7 | 0.00 | 0.03 | 0.03 | 58 | 1012.6 |
| 20260504011640 | 12 | 243 | 6.4 | 9.7 | 0.00 | 0.03 | 0.03 | 57 | 1012.5 |
| 20260504011136 | 12 | 183 | 4.8 | 8.0 | 0.00 | 0.03 | 0.03 | 56 | 1012.4 |
| 20260504010632 | 12 | 244 | 9.7 | 11.3 | 0.00 | 0.03 | 0.03 | 56 | 1012.5 |
| 20260504010128 | 12 | 224 | 8.0 | 12.9 | 0.00 | 0.03 | 0.03 | 55 | 1012.5 |
| 20260504005625 | 13 | 218 | 6.4 | 17.7 | 0.00 | 0.03 | 0.03 | 55 | 1012.5 |
| 20260504005122 | 12 | 286 | 17.7 | 25.7 | 0.00 | 0.03 | 0.03 | 55 | 1012.5 |
| 20260504004620 | 12 | 213 | 8.0 | 16.1 | 0.00 | 0.03 | 0.03 | 53 | 1012.4 |
| 20260504004117 | 12 | 202 | 0.0 | 3.2 | 0.00 | 0.03 | 0.03 | 58 | 1012.1 |
| 20260504003614 | 12 | 214 | 3.2 | 4.8 | 0.00 | 0.03 | 0.03 | 66 | 1012.1 |
| 20260504003110 | 12 | 108 | 0.0 | 1.6 | 0.00 | 0.03 | 0.03 | 61 | 1012.0 |
| 20260504002607 | 12 | 219 | 0.0 | 3.2 | 0.00 | 0.03 | 0.03 | 68 | 1012.1 |
| 20260504002104 | 12 | 214 | 1.6 | 1.6 | 0.00 | 0.03 | 0.03 | 67 | 1012.1 |
| 20260504001602 | 13 | 154 | 0.0 | 3.2 | 0.00 | 0.03 | 0.03 | 64 | 1012.0 |
| 20260504001058 | 13 | 199 | 1.6 | 4.8 | 0.00 | 0.03 | 0.03 | 49 | 1011.9 |
| 20260504000555 | 13 | 219 | 1.6 | 3.2 | 0.00 | 0.03 | 0.03 | 53 | 1011.8 |
| 20260504000053 | 13 | 137 | 0.0 | 3.2 | 0.00 | 0.03 | 0.03 | 51 | 1012.1 |
| 20260503235551 | 13 | 211 | 1.6 | 4.8 | 0.00 | 0.03 | 0.03 | 47 | 1012.0 |
| 20260503235047 | 13 | 197 | 3.2 | 3.2 | 0.00 | 0.03 | 0.03 | 49 | 1012.1 |
| 20260503234545 | 14 | 268 | 6.4 | 9.7 | 0.00 | 0.03 | 0.03 | 47 | 1012.1 |
| 20260503234043 | 14 | 240 | 4.8 | 8.0 | 0.00 | 0.03 | 0.03 | 47 | 1012.0 |
| 20260503233539 | 14 | 226 | 3.2 | 8.0 | 0.00 | 0.03 | 0.03 | 47 | 1012.1 |
| 20260503233035 | 14 | 144 | 4.8 | 11.3 | 0.00 | 0.03 | 0.03 | 48 | 1012.1 |
| 20260503232532 | 14 | 265 | 1.6 | 9.7 | 0.00 | 0.03 | 0.03 | 46 | 1012.2 |
| 20260503232030 | 14 | 203 | 9.7 | 12.9 | 0.00 | 0.03 | 0.03 | 46 | 1012.3 |
| 20260503231528 | 14 | 250 | 8.0 | 11.3 | 0.00 | 0.03 | 0.03 | 46 | 1012.3 |
| 20260503231024 | 14 | 274 | 6.4 | 11.3 | 0.00 | 0.03 | 0.03 | 45 | 1012.3 |
| 20260503230521 | 15 | 197 | 14.5 | 20.9 | 0.00 | 0.03 | 0.03 | 46 | 1012.4 |
| 20260503230018 | 15 | 202 | 6.4 | 8.0 | 0.00 | 0.03 | 0.03 | 45 | 1012.3 |
| 20260503225515 | 15 | 191 | 3.2 | 12.9 | 0.00 | 0.03 | 0.03 | 46 | 1012.5 |
| 20260503225010 | 15 | 233 | 6.4 | 12.9 | 0.00 | 0.03 | 0.03 | 46 | 1012.4 |
| 20260503224508 | 15 | 225 | 0.0 | 11.3 | 0.00 | 0.03 | 0.03 | 45 | 1012.5 |
| 20260503224005 | 15 | 196 | 3.2 | 4.8 | 0.00 | 0.03 | 0.03 | 46 | 1012.2 |
| 20260503223503 | 15 | 224 | 4.8 | 8.0 | 0.00 | 0.03 | 0.03 | 46 | 1012.6 |
| 20260503222958 | 15 | 273 | 6.4 | 9.7 | 0.00 | 0.03 | 0.03 | 45 | 1012.8 |
| 20260503222457 | 15 | 227 | 4.8 | 14.5 | 0.00 | 0.03 | 0.03 | 45 | 1013.0 |
| 20260503221955 | 15 | 260 | 9.7 | 17.7 | 0.00 | 0.03 | 0.03 | 43 | 1012.4 |
| 20260503221453 | 15 | 166 | 1.6 | 14.5 | 0.00 | 0.03 | 0.03 | 44 | 1012.7 |
| 20260503220950 | 15 | 200 | 8.0 | 16.1 | 0.00 | 0.03 | 0.03 | 45 | 1012.9 |
| 20260503220446 | 15 | 236 | 8.0 | 24.1 | 0.00 | 0.03 | 0.03 | 44 | 1012.6 |
| 20260503215943 | 15 | 98 | 3.2 | 4.8 | 0.00 | 0.03 | 0.03 | 45 | 1012.6 |
| 20260503215440 | 15 | 214 | 6.4 | 16.1 | 0.00 | 0.03 | 0.03 | 46 | 1012.9 |
| 20260503214937 | 15 | 242 | 12.9 | 22.5 | 0.00 | 0.03 | 0.03 | 45 | 1012.9 |
| 20260503214435 | 15 | 229 | 4.8 | 14.5 | 0.00 | 0.03 | 0.03 | 45 | 1013.1 |
| 20260503213932 | 15 | 226 | 6.4 | 12.9 | 0.00 | 0.03 | 0.03 | 45 | 1012.9 |
| 20260503213430 | 15 | 257 | 12.9 | 20.9 | 0.00 | 0.03 | 0.03 | 44 | 1013.0 |
| 20260503212926 | 16 | 247 | 6.4 | 8.0 | 0.00 | 0.03 | 0.03 | 46 | 1012.9 |
| 20260503212424 | 15 | 216 | 14.5 | 20.9 | 0.00 | 0.03 | 0.03 | 45 | 1012.9 |
| 20260503211921 | 16 | 239 | 8.0 | 11.3 | 0.00 | 0.03 | 0.03 | 45 | 1012.9 |
| 20260503211418 | 16 | 213 | 11.3 | 14.5 | 0.00 | 0.03 | 0.03 | 45 | 1013.1 |
| 20260503210913 | 16 | 220 | 3.2 | 11.3 | 0.00 | 0.03 | 0.03 | 43 | 1012.9 |
| 20260503210410 | 15 | 253 | 8.0 | 12.9 | 0.00 | 0.03 | 0.03 | 45 | 1013.0 |
| 20260503205905 | 16 | 274 | 1.6 | 27.4 | 0.00 | 0.03 | 0.03 | 44 | 1013.0 |
| 20260503205403 | 16 | 255 | 12.9 | 14.5 | 0.00 | 0.03 | 0.03 | 45 | 1013.2 |
| 20260503204858 | 16 | 228 | 6.4 | 11.3 | 0.00 | 0.03 | 0.03 | 45 | 1013.0 |
| 20260503204356 | 16 | 37 | 8.0 | 12.9 | 0.00 | 0.03 | 0.03 | 46 | 1013.0 |
| 20260503203853 | 16 | 243 | 3.2 | 4.8 | 0.00 | 0.03 | 0.03 | 48 | 1012.9 |
| 20260503203350 | 15 | 213 | 11.3 | 14.5 | 0.00 | 0.03 | 0.03 | 47 | 1012.9 |
| 20260503202847 | 15 | 236 | 8.0 | 16.1 | 0.00 | 0.03 | 0.03 | 44 | 1013.3 |
| 20260503202345 | 15 | 240 | 11.3 | 16.1 | 0.00 | 0.03 | 0.03 | 45 | 1013.1 |
| 20260503201844 | 16 | 341 | 1.6 | 14.5 | 0.00 | 0.03 | 0.03 | 47 | 1013.1 |
| 20260503201340 | 15 | 220 | 4.8 | 16.1 | 0.00 | 0.03 | 0.03 | 45 | 1013.2 |
| 20260503200838 | 15 | 210 | 12.9 | 24.1 | 0.00 | 0.03 | 0.03 | 45 | 1013.4 |
| 20260503200333 | 16 | 215 | 11.3 | 20.9 | 0.00 | 0.03 | 0.03 | 45 | 1013.3 |
| 20260503195831 | 15 | 255 | 6.4 | 12.9 | 0.00 | 0.03 | 0.03 | 48 | 1013.3 |
| 20260503195327 | 16 | 179 | 8.0 | 20.9 | 0.00 | 0.03 | 0.03 | 46 | 1013.6 |
| 20260503194824 | 16 | 266 | 12.9 | 14.5 | 0.00 | 0.03 | 0.03 | 44 | 1013.7 |
| 20260503194320 | 16 | 291 | 4.8 | 8.0 | 0.00 | 0.03 | 0.03 | 44 | 1013.8 |
| 20260503193817 | 15 | 255 | 4.8 | 9.7 | 0.00 | 0.03 | 0.03 | 46 | 1013.8 |
| 20260503193313 | 15 | 124 | 3.2 | 14.5 | 0.00 | 0.03 | 0.03 | 45 | 1013.9 |
| 20260503192809 | 16 | 103 | 4.8 | 17.7 | 0.00 | 0.03 | 0.03 | 47 | 1014.0 |
| 20260503192305 | 15 | 258 | 4.8 | 16.1 | 0.00 | 0.03 | 0.03 | 50 | 1014.1 |
| 20260503191801 | 16 | 250 | 3.2 | 8.0 | 0.00 | 0.03 | 0.03 | 44 | 1014.1 |
| 20260503191258 | 16 | 202 | 4.8 | 16.1 | 0.00 | 0.03 | 0.03 | 46 | 1014.2 |
| 20260503190754 | 16 | 125 | 4.8 | 16.1 | 0.00 | 0.03 | 0.03 | 47 | 1014.2 |
| 20260503190251 | 16 | 228 | 9.7 | 14.5 | 0.00 | 0.03 | 0.03 | 46 | 1014.4 |
| 20260503185748 | 15 | 46 | 12.9 | 17.7 | 0.00 | 0.03 | 0.03 | 45 | 1014.5 |
| 20260503185244 | 15 | 267 | 19.3 | 27.4 | 0.00 | 0.03 | 0.03 | 46 | 1014.6 |
| 20260503184739 | 15 | 137 | 9.7 | 16.1 | 0.00 | 0.03 | 0.03 | 48 | 1014.6 |
| 20260503184236 | 15 | 123 | 11.3 | 27.4 | 0.00 | 0.03 | 0.03 | 48 | 1014.6 |
| 20260503183732 | 15 | 275 | 3.2 | 14.5 | 0.00 | 0.03 | 0.03 | 47 | 1014.9 |
| 20260503183229 | 15 | 256 | 9.7 | 20.9 | 0.00 | 0.03 | 0.03 | 47 | 1014.8 |
| 20260503182727 | 15 | 116 | 3.2 | 11.3 | 0.00 | 0.03 | 0.03 | 48 | 1014.9 |
| 20260503182226 | 14 | 208 | 3.2 | 17.7 | 0.00 | 0.03 | 0.03 | 48 | 1014.9 |
| 20260503181722 | 15 | 295 | 6.4 | 12.9 | 0.00 | 0.03 | 0.03 | 49 | 1014.8 |
| 20260503181219 | 16 | 280 | 3.2 | 8.0 | 0.00 | 0.03 | 0.03 | 45 | 1014.9 |
| 20260503180715 | 15 | 306 | 9.7 | 20.9 | 0.00 | 0.03 | 0.03 | 55 | 1015.1 |
| 20260503180214 | 14 | 88 | 1.6 | 3.2 | 0.00 | 0.03 | 0.03 | 50 | 1015.0 |
| 20260503175710 | 13 | 243 | 4.8 | 4.8 | 0.00 | 0.03 | 0.03 | 52 | 1015.2 |
| 20260503175208 | 14 | 251 | 14.5 | 16.1 | 0.00 | 0.03 | 0.03 | 48 | 1015.2 |
| 20260503174704 | 14 | 286 | 3.2 | 12.9 | 0.00 | 0.03 | 0.03 | 47 | 1015.5 |
| 20260503174202 | 15 | 230 | 3.2 | 14.5 | 0.00 | 0.03 | 0.03 | 47 | 1015.2 |
| 20260503173657 | 14 | 213 | 8.0 | 11.3 | 0.00 | 0.03 | 0.03 | 46 | 1015.2 |
| 20260503173153 | 15 | 160 | 4.8 | 4.8 | 0.00 | 0.03 | 0.03 | 50 | 1015.2 |
| 20260503172650 | 15 | 281 | 4.8 | 9.7 | 0.00 | 0.03 | 0.03 | 49 | 1015.4 |
| 20260503172147 | 14 | 234 | 6.4 | 11.3 | 0.00 | 0.03 | 0.03 | 46 | 1015.2 |
| 20260503171643 | 15 | 249 | 8.0 | 9.7 | 0.00 | 0.03 | 0.03 | 48 | 1015.4 |
| 20260503171141 | 13 | 218 | 8.0 | 12.9 | 0.00 | 0.03 | 0.03 | 49 | 1015.5 |
| 20260503170638 | 15 | 253 | 1.6 | 16.1 | 0.00 | 0.03 | 0.03 | 49 | 1015.6 |
| 20260503170135 | 15 | 254 | 3.2 | 9.7 | 0.00 | 0.03 | 0.03 | 51 | 1015.4 |
| 20260503150526 | 11 | 263 | 11.3 | 14.5 | 0.00 | 0.03 | 0.03 | 54 | 1016.9 |
| 20260503131419 | 7 | 144 | 0.0 | 8.0 | 0.00 | 0.03 | 0.03 | 74 | 1017.5 |
| 20260503130916 | 7 | 169 | 3.2 | 3.2 | 0.00 | 0.03 | 0.03 | 71 | 1017.4 |
| 20260503130414 | 7 | 251 | 3.2 | 4.8 | 0.00 | 0.03 | 0.03 | 73 | 1017.6 |
| 20260503110818 | -1 | 203 | 0.0 | 0.0 | 0.00 | 0.00 | 0.00 | 95 | 1016.9 |
| 20260503110315 | -1 | 182 | 0.0 | 0.0 | 0.00 | 0.00 | 0.00 | 95 | 1017.0 |
| 20260503100241 | -1 | 215 | 1.6 | 1.6 | 0.00 | 0.00 | 0.00 | 95 | 1016.4 |
| 20260503090200 | -1 | 205 | 1.6 | 3.2 | 0.00 | 0.00 | 0.00 | 95 | 1016.4 |
| 20260503081630 | 0 | 195 | 1.6 | 3.2 | 0.00 | 0.00 | 0.00 | 95 | 1016.3 |
| 20260503081127 | 0 | 179 | 1.6 | 3.2 | 0.00 | 0.00 | 0.00 | 95 | 1016.3 |
| 20260503080623 | 0 | 162 | 0.0 | 1.6 | 0.00 | 0.00 | 0.00 | 95 | 1016.4 |
| 20260503080120 | 0 | 184 | 1.6 | 1.6 | 0.00 | 0.00 | 0.00 | 95 | 1016.2 |
| 20260503072557 | 0 | 199 | 1.6 | 1.6 | 0.00 | 0.00 | 0.00 | 95 | 1016.0 |
| 20260503072054 | 0 | 161 | 1.6 | 1.6 | 0.00 | 0.00 | 0.00 | 95 | 1016.3 |
| 20260503071550 | 0 | 180 | 1.6 | 1.6 | 0.00 | 0.00 | 0.00 | 95 | 1015.9 |
| 20260503071047 | 0 | 120 | 0.0 | 1.6 | 0.00 | 0.00 | 0.00 | 95 | 1016.2 |
| 20260503070543 | 0 | 140 | 1.6 | 3.2 | 0.00 | 0.00 | 0.00 | 95 | 1016.4 |
| 20260503054957 | 1 | 201 | 1.6 | 1.6 | 0.00 | 0.00 | 0.00 | 94 | 1016.4 |
| 20260503054453 | 1 | 139 | 0.0 | 0.0 | 0.00 | 0.00 | 0.00 | 94 | 1016.2 |
| 20260503053951 | 1 | 191 | 1.6 | 1.6 | 0.00 | 0.00 | 0.00 | 94 | 1016.3 |
| 20260503053449 | 1 | 203 | 1.6 | 1.6 | 0.00 | 0.00 | 0.00 | 94 | 1016.4 |
| 20260503052945 | 1 | 246 | 1.6 | 3.2 | 0.00 | 0.00 | 0.00 | 94 | 1016.5 |
| 20260503052443 | 1 | 241 | 1.6 | 1.6 | 0.00 | 0.00 | 0.00 | 94 | 1016.5 |
| 20260503051939 | 1 | 196 | 1.6 | 1.6 | 0.00 | 0.00 | 0.00 | 94 | 1016.5 |
| 20260503051435 | 1 | 199 | 1.6 | 1.6 | 0.00 | 0.00 | 0.00 | 94 | 1016.6 |
| 20260503050932 | 1 | 229 | 1.6 | 3.2 | 0.00 | 0.00 | 0.00 | 94 | 1016.6 |
| 20260503050427 | 1 | 218 | 1.6 | 3.2 | 0.00 | 0.00 | 0.00 | 94 | 1016.5 |
| 20260503045926 | 1 | 227 | 1.6 | 1.6 | 0.00 | 0.00 | 0.00 | 94 | 1016.7 |
| 20260503045423 | 1 | 178 | 0.0 | 1.6 | 0.00 | 0.00 | 0.00 | 94 | 1016.7 |
| 20260503044920 | 1 | 175 | 0.0 | 3.2 | 0.00 | 0.00 | 0.00 | 94 | 1016.6 |
| 20260503044417 | 1 | 232 | 1.6 | 3.2 | 0.00 | 0.00 | 0.00 | 94 | 1016.5 |
| 20260503043914 | 1 | 236 | 3.2 | 3.2 | 0.00 | 0.00 | 0.00 | 94 | 1016.6 |
| 20260503043411 | 1 | 142 | 0.0 | 0.0 | 0.00 | 0.00 | 0.00 | 94 | 1016.4 |
| 20260503042907 | 1 | 194 | 1.6 | 1.6 | 0.00 | 0.00 | 0.00 | 94 | 1016.3 |
| 20260503042404 | 1 | 186 | 0.0 | 1.6 | 0.00 | 0.00 | 0.00 | 94 | 1016.4 |
| 20260503041900 | 1 | 214 | 1.6 | 3.2 | 0.00 | 0.00 | 0.00 | 94 | 1016.5 |
| 20260503041357 | 1 | 242 | 1.6 | 1.6 | 0.00 | 0.00 | 0.00 | 94 | 1016.2 |
| 20260503040854 | 1 | 244 | 3.2 | 3.2 | 0.00 | 0.00 | 0.00 | 94 | 1016.4 |
| 20260503040352 | 1 | 226 | 1.6 | 3.2 | 0.00 | 0.00 | 0.00 | 94 | 1016.5 |
| 20260503035849 | 1 | 253 | 3.2 | 3.2 | 0.00 | 0.03 | 0.03 | 94 | 1016.5 |
| 20260503035346 | 1 | 233 | 1.6 | 3.2 | 0.00 | 0.03 | 0.03 | 93 | 1016.7 |
| 20260503034843 | 1 | 129 | 1.6 | 1.6 | 0.00 | 0.03 | 0.03 | 93 | 1016.5 |
| 20260503034340 | 2 | 243 | 1.6 | 3.2 | 0.00 | 0.03 | 0.03 | 93 | 1016.4 |
| 20260503033838 | 2 | 243 | 1.6 | 3.2 | 0.00 | 0.03 | 0.03 | 93 | 1016.2 |
| 20260503033335 | 2 | 203 | 1.6 | 3.2 | 0.00 | 0.03 | 0.03 | 93 | 1016.5 |
| 20260503032833 | 2 | 249 | 1.6 | 1.6 | 0.00 | 0.03 | 0.03 | 93 | 1016.7 |
| 20260503032331 | 2 | 200 | 1.6 | 1.6 | 0.00 | 0.03 | 0.03 | 93 | 1016.7 |
| 20260503031828 | 2 | 230 | 1.6 | 3.2 | 0.00 | 0.03 | 0.03 | 93 | 1016.5 |
| 20260503031326 | 2 | 236 | 1.6 | 3.2 | 0.00 | 0.03 | 0.03 | 93 | 1016.6 |
| 20260503030822 | 2 | 215 | 1.6 | 1.6 | 0.00 | 0.03 | 0.03 | 92 | 1016.5 |